IRIDIUM 106 1 41917U 17003A 26106.97826650 -.00000002 00000+0 -78979-5 0 9999 2 41917 86.3928 114.1523 0002565 90.8846 269.2644 14.34217222484434 IRIDIUM 103 1 41918U 17003B 26107.31442274 .00000052 00000+0 11354-4 0 9991 2 41918 86.3925 113.9116 0002172 97.8277 262.3166 14.34217833484505 IRIDIUM 109 1 41919U 17003C 26107.11146102 .00000039 00000+0 68973-5 0 9996 2 41919 86.3926 114.0551 0002265 92.3683 267.7772 14.34217862484443 IRIDIUM 102 1 41920U 17003D 26107.07974856 .00000058 00000+0 13529-4 0 9995 2 41920 86.3925 113.9932 0002310 89.1982 270.9478 14.34217674484521 IRIDIUM 105 1 41921U 17003E 26107.24995071 .00000158 00000+0 49310-4 0 9995 2 41921 86.3929 82.3488 0002244 88.7105 271.4348 14.34399332486402 IRIDIUM 104 1 41922U 17003F 26107.09243213 -.00000044 00000+0 -22805-4 0 9999 2 41922 86.3931 114.0296 0001919 93.8272 266.3144 14.34217215484512 IRIDIUM 114 1 41923U 17003G 26106.95923861 .00000052 00000+0 11630-4 0 9999 2 41923 86.3926 114.0687 0002154 94.7460 265.3982 14.34217971484475 IRIDIUM 108 1 41924U 17003H 26106.63868527 .00000138 00000+0 42138-4 0 9994 2 41924 86.3925 82.4963 0002305 84.6063 275.5396 14.34217404486289 IRIDIUM 112 1 41925U 17003J 26107.08609041 .00000072 00000+0 18605-4 0 9998 2 41925 86.3922 113.8604 0002156 91.9167 268.2276 14.34218080484519 IRIDIUM 111 1 41926U 17003K 26107.00363727 .00000038 00000+0 66023-5 0 9999 2 41926 86.3926 113.9643 0002281 92.6541 267.4916 14.34217787484482 IRIDIUM 113 1 42803U 17039A 26107.12313800 .00000038 00000+0 64829-5 0 9995 2 42803 86.4003 347.7074 0001792 86.7851 273.3550 14.34217837462430 IRIDIUM 123 1 42804U 17039B 26107.09484947 .00000037 00000+0 60973-5 0 9998 2 42804 86.4018 19.1636 0002288 88.8838 271.2620 14.34217783461197 IRIDIUM 120 1 42805U 17039C 26107.04702848 .00000018 00000+0 -64998-6 0 9999 2 42805 86.3991 347.5296 0002183 83.6527 276.4917 14.34217561462415 IRIDIUM 115 1 42806U 17039D 26107.03810932 .00000231 00000+0 62750-4 0 9991 2 42806 86.4532 347.6542 0002458 89.9764 270.1719 14.43280861465440 IRIDIUM 118 1 42807U 17039E 26107.12656332 .00000185 00000+0 59159-4 0 9991 2 42807 86.4018 19.1486 0002144 85.6219 274.5222 14.34218975461190 IRIDIUM 117 1 42808U 17039F 26107.07582183 .00000014 00000+0 -22008-5 0 9994 2 42808 86.4020 19.1282 0002284 88.7353 271.4105 14.34217752461217 IRIDIUM 126 1 42809U 17039G 26107.10119115 .00000049 00000+0 10562-4 0 9998 2 42809 86.4019 19.1676 0002081 88.7738 271.3696 14.34217096461197 IRIDIUM 124 1 42810U 17039H 26107.11066037 .00000222 00000+0 60110-4 0 9992 2 42810 86.4468 315.9166 0002240 89.3267 270.8190 14.43293444466301 IRIDIUM 128 1 42811U 17039J 26107.16169897 .00000003 00000+0 -59550-5 0 9991 2 42811 86.3972 50.6518 0002329 84.0711 276.0751 14.34217548461238 IRIDIUM 121 1 42812U 17039K 26107.12023879 .00000187 00000+0 59826-4 0 9994 2 42812 86.4018 19.1870 0002267 83.3317 276.8137 14.34215670461079 IRIDIUM 133 1 42955U 17061A 26107.19341076 .00000074 00000+0 19321-4 0 9997 2 42955 86.3979 50.7545 0002291 86.9758 273.1700 14.34217003446034 IRIDIUM 100 1 42956U 17061B 26107.18706915 .00000038 00000+0 65099-5 0 9998 2 42956 86.3976 50.6772 0002283 86.7519 273.3938 14.34217412446036 IRIDIUM 122 1 42957U 17061C 26107.15535601 .00000047 00000+0 97678-5 0 9996 2 42957 86.3975 50.6904 0002270 88.3629 271.7827 14.34217786446032 IRIDIUM 129 1 42958U 17061D 26107.18072646 .00000162 00000+0 50803-4 0 9991 2 42958 86.3977 50.7463 0001939 83.0671 277.0746 14.34218753446052 IRIDIUM 119 1 42959U 17061E 26107.21878195 .00000022 00000+0 70502-6 0 9994 2 42959 86.3975 50.7262 0002021 88.3504 271.7924 14.34217330446075 IRIDIUM 107 1 42960U 17061F 26107.16804852 .00000174 00000+0 54985-4 0 9992 2 42960 86.3978 50.7680 0002402 91.7614 268.3857 14.34220135446071 IRIDIUM 132 1 42961U 17061G 26107.17438303 .00000144 00000+0 44505-4 0 9992 2 42961 86.3978 50.7453 0002282 86.8941 273.2516 14.34217629446075 IRIDIUM 136 1 42962U 17061H 26107.20609732 .00000168 00000+0 52976-4 0 9990 2 42962 86.3979 50.7383 0002248 88.9525 271.1928 14.34217889446096 IRIDIUM 139 1 42963U 17061J 26107.21243981 .00000171 00000+0 54089-4 0 9993 2 42963 86.3978 50.7967 0002357 86.3135 273.8330 14.34218119446109 IRIDIUM 125 1 42964U 17061K 26107.19975380 -.00000013 00000+0 -11698-4 0 9992 2 42964 86.3977 50.8622 0002018 100.6497 259.4926 14.34217353446114 IRIDIUM 135 1 43070U 17083A 26107.03434226 -.00000005 00000+0 -88846-5 0 9998 2 43070 86.3997 347.5852 0002059 85.0457 275.0974 14.34217772435382 IRIDIUM 138 1 43071U 17083B 26107.12948066 -.00000021 00000+0 -14567-4 0 9997 2 43071 86.4014 347.2321 0001720 90.8174 269.3219 14.34217582435383 IRIDIUM 116 1 43072U 17083C 26107.16753771 .00000094 00000+0 26494-4 0 9999 2 43072 86.3998 347.5166 0002409 83.1882 276.9588 14.34217854435420 IRIDIUM 130 1 43073U 17083D 26107.13582446 .00000161 00000+0 50495-4 0 9999 2 43073 86.4008 347.7991 0002409 88.2296 271.9176 14.34218058435365 IRIDIUM 151 1 43074U 17083E 26107.04068510 .00000107 00000+0 30971-4 0 9998 2 43074 86.4001 347.6260 0002213 84.0851 276.0597 14.34218069435377 IRIDIUM 134 1 43075U 17083F 26107.14850867 .00000123 00000+0 36861-4 0 9996 2 43075 86.4006 347.5884 0002286 87.1777 272.9680 14.34218526435359 IRIDIUM 137 1 43076U 17083G 26107.16119648 .00000184 00000+0 58512-4 0 9998 2 43076 86.4005 347.6744 0002383 73.8201 286.3257 14.34218862435427 IRIDIUM 141 1 43077U 17083H 26107.15485143 -.00000021 00000+0 -14642-4 0 9992 2 43077 86.3997 347.5109 0001953 84.4762 275.6656 14.34217405435429 IRIDIUM 153 1 43078U 17083J 26107.10702971 -.00000019 00000+0 -13938-4 0 9993 2 43078 86.3943 316.0271 0001889 93.2041 266.9371 14.34217527436522 IRIDIUM 131 1 43079U 17083K 26107.14216667 -.00000013 00000+0 -11682-4 0 9998 2 43079 86.4006 347.6983 0001975 84.0943 276.0478 14.34217393435350 IRIDIUM 144 1 43249U 18030A 26106.97383520 .00000151 00000+0 46755-4 0 9993 2 43249 86.3943 316.0137 0002272 86.5759 273.5697 14.34218560421360 IRIDIUM 149 1 43250U 18030B 26107.11971518 .00000106 00000+0 30818-4 0 9995 2 43250 86.3943 315.9205 0002054 88.0483 272.0948 14.34218073421402 IRIDIUM 157 1 43251U 18030C 26107.06897476 .00000049 00000+0 10495-4 0 9995 2 43251 86.3947 315.9935 0002167 88.6141 271.5303 14.34217808421379 IRIDIUM 140 1 43252U 18030D 26107.08800264 .00000031 00000+0 40727-5 0 9990 2 43252 86.3946 315.9983 0002202 89.2878 270.8570 14.34217755421432 IRIDIUM 145 1 43253U 18030E 26107.28462334 .00000164 00000+0 51534-4 0 9999 2 43253 86.3944 315.8883 0002453 85.2393 274.9083 14.34219030421392 IRIDIUM 146 1 43254U 18030F 26107.12605781 -.00000054 00000+0 -26208-4 0 9998 2 43254 86.3940 315.9667 0002154 86.6204 273.5238 14.34217430421382 IRIDIUM 148 1 43255U 18030G 26107.09434561 .00000164 00000+0 51474-4 0 9994 2 43255 86.3946 316.0226 0002130 85.0091 275.1348 14.34215497421418 IRIDIUM 142 1 43256U 18030H 26107.13239821 .00000047 00000+0 97465-5 0 9993 2 43256 86.3944 315.8980 0002361 86.2759 273.8707 14.34214749421380 IRIDIUM 150 1 43257U 18030J 26107.10068804 .00000172 00000+0 54415-4 0 9998 2 43257 86.3946 316.0255 0002196 88.6060 271.5388 14.34218086421409 IRIDIUM 143 1 43258U 18030K 26107.29096649 .00000160 00000+0 49913-4 0 9991 2 43258 86.3948 316.0361 0002283 87.1394 273.0063 14.34217942421363 IRIDIUM 161 1 43478U 18047C 26107.01919075 .00000127 00000+0 31796-4 0 9993 2 43478 86.4446 114.0542 0002022 87.6170 272.5262 14.43281346416319 IRIDIUM 152 1 43479U 18047D 26106.98460920 .00000034 00000+0 50150-5 0 9992 2 43479 86.3920 113.9292 0002165 92.1760 267.9684 14.34217696413714 IRIDIUM 147 1 43480U 18047E 26107.06072009 -.00000012 00000+0 -11497-4 0 9999 2 43480 86.3926 113.9015 0002262 89.2762 270.8693 14.34217419413729 IRIDIUM 110 1 43481U 18047F 26106.99729332 .00000031 00000+0 38949-5 0 9990 2 43481 86.3925 114.0182 0001907 90.6419 269.4995 14.34217795413700 IRIDIUM 162 1 43482U 18047G 26107.08222325 .00000030 00000+0 28201-5 0 9991 2 43482 86.4446 113.9196 0002332 93.5247 266.6221 14.43278651416316 IRIDIUM 160 1 43569U 18061A 26106.45475081 .00000027 00000+0 25333-5 0 9991 2 43569 86.3925 82.6082 0002171 85.4226 274.7218 14.34217664404520 IRIDIUM 166 1 43570U 18061B 26107.24758420 .00000150 00000+0 46379-4 0 9991 2 43570 86.3925 82.2276 0002405 87.3258 272.8213 14.34214218404660 IRIDIUM 158 1 43571U 18061C 26106.44840826 .00000224 00000+0 72891-4 0 9995 2 43571 86.3926 82.5721 0002232 91.4410 268.7041 14.34217833404517 IRIDIUM 165 1 43572U 18061D 26107.24123165 .00000194 00000+0 62143-4 0 9990 2 43572 86.3928 82.2854 0002382 86.2642 273.8826 14.34217144404657 IRIDIUM 155 1 43573U 18061E 26106.85433408 .00000054 00000+0 12074-4 0 9994 2 43573 86.3925 82.3195 0002340 90.9060 269.2404 14.34217931404569 IRIDIUM 154 1 43574U 18061F 26106.62600162 .00000189 00000+0 60316-4 0 9994 2 43574 86.3925 82.5456 0002414 85.2230 274.9241 14.34218255404584 IRIDIUM 163 1 43575U 18061G 26107.23488417 .00000161 00000+0 50359-4 0 9996 2 43575 86.3925 82.2080 0002174 90.1566 269.9879 14.34215248404642 IRIDIUM 156 1 43576U 18061H 26106.44206524 -.00000006 00000+0 -92116-5 0 9994 2 43576 86.3927 82.5474 0002263 90.1806 269.9649 14.34217234404520 IRIDIUM 164 1 43577U 18061J 26107.26026001 .00000060 00000+0 14380-4 0 9990 2 43577 86.3927 82.2440 0002319 83.3161 276.8298 14.34217893404686 IRIDIUM 159 1 43578U 18061K 26107.22854799 .00000159 00000+0 49859-4 0 9998 2 43578 86.3924 82.1953 0002155 87.4037 272.7406 14.34216971404645 IRIDIUM 180 1 43922U 19002A 26107.22804340 .00000060 00000+0 14409-4 0 9998 2 43922 86.4019 19.0688 0002090 83.1804 276.9630 14.34217942380255 IRIDIUM 176 1 43923U 19002B 26107.12398577 .00000546 00000+0 82696-4 0 9990 2 43923 86.6137 19.0643 0002590 83.4122 276.7390 14.72257325390265 IRIDIUM 168 1 43924U 19002C 26107.01239516 .00000187 00000+0 59618-4 0 9995 2 43924 86.4020 19.2344 0002174 86.2530 273.8914 14.34218458380202 IRIDIUM 173 1 43925U 19002D 26107.13924675 .00000172 00000+0 54257-4 0 9994 2 43925 86.4016 19.0728 0002174 87.9204 272.2241 14.34217986380209 IRIDIUM 169 1 43926U 19002E 26107.18228263 .00000191 00000+0 55887-4 0 9991 2 43926 86.4233 50.6853 0002587 99.6235 260.5255 14.38609044381450 IRIDIUM 172 1 43927U 19002F 26107.13290467 .00000064 00000+0 15898-4 0 9999 2 43927 86.4018 19.0832 0002147 83.3732 276.7708 14.34217850380213 IRIDIUM 175 1 43928U 19002G 26107.07017459 .00000217 00000+0 57974-4 0 9992 2 43928 86.4499 316.0874 0005302 74.9935 285.1853 14.43589721390169 IRIDIUM 171 1 43929U 19002H 26107.11387729 -.00000030 00000+0 -17676-4 0 9998 2 43929 86.4022 19.3904 0002250 84.6914 275.4539 14.34217639380206 IRIDIUM 170 1 43930U 19002J 26107.13017105 .00000547 00000+0 82770-4 0 9998 2 43930 86.6138 19.0646 0002321 83.5738 276.5743 14.72254063390270 IRIDIUM 167 1 43931U 19002K 26107.17730314 .00000077 00000+0 20269-4 0 9990 2 43931 86.4019 19.0866 0002533 86.7993 273.3493 14.34218076380216 IRIDIUM 181 1 56726U 23068S 26106.47262152 .00000178 00000+0 46971-4 0 9995 2 56726 86.4463 82.5876 0002284 79.6242 280.5216 14.43312058153533 IRIDIUM 177 1 56727U 23068T 26107.14321734 .00000688 00000+0 87030-4 0 9990 2 56727 86.2006 357.7824 0002173 90.2197 269.9273 14.80220355157335 IRIDIUM 174 1 56728U 23068U 26107.18576908 .00000554 00000+0 83991-4 0 9994 2 56728 86.6146 19.1827 0002142 86.3922 273.7540 14.72263121157042 IRIDIUM 178 1 56729U 23068V 26107.26744784 .00000741 00000+0 94040-4 0 9998 2 56729 86.6548 50.8066 0002674 81.5312 278.6212 14.80237671157350 IRIDIUM 179 1 56730U 23068W 26106.85645989 .00000713 00000+0 90430-4 0 9999 2 56730 86.6770 59.7783 0002970 87.6414 272.5148 14.80236929157291